Location: Bidwell Hollow
(37.7387°N, 90.1707°W)
Time: 02:21:51
(UTC+00:00)

Vanguard 3 - Pass Details

Date: 17 May 2026
Orbit: 507 x 3204 km, 33.3° (Epoch: 6 June)

Event Time Altitude Azimuth Distance (km) Brightness Sun altitude
Rises 22:24:06 0° 274° (W) 7,049 13.1 29.9°
Reaches altitude 10° 22:28:46 10° 273° (W) 6,110 13.3 29.0°
Maximum altitude 22:48:17 71° 195° (SSW) 2,982 10.5 25.1°
Drops below altitude 10° 23:02:21 10° 114° (ESE) 4,594 10.5 22.4°
Sets 23:05:19 0° 112° (ESE) 5,293 10.7 21.8°
